When you browse on this site, cookies collect data to enhance your experience and personalize the content and advertising you see.
Visit our Privacy Policy to learn more. By continuing to use the site, you agree to this use of cookies and data.
  • In Spain
  • List of Countries
  • For 7 days
  • Water Temperature
  • Satellite Maps
  • Weather Map
  • Weather Widgets
  • user-avatar
    Login

    Hourly Weather Barra

    Today, 17 February, Sunday

    Time Temperature Precipitation Wind Pressure Humidity
    00:00 +25°C° 0.2 mm 1 mps 747 mmHg 94%
    01:00 +23°C° 0.2 mm 0 mps 747 mmHg 95%
    02:00 +25°C° 0.4 mm 1 mps 747 mmHg 96%
    03:00 +25°C° 0.4 mm 1 mps 747 mmHg 96%
    04:00 +25°C° 0 mm 1 mps 747 mmHg 97%
    05:00 +25°C° 0.2 mm 1 mps 747 mmHg 96%
    06:00 +25°C° 0.2 mm 1 mps 747 mmHg 95%
    07:00 +25°C° 0.2 mm 2 mps 747 mmHg 93%
    08:00 +27°C° 0.3 mm 2 mps 747 mmHg 84%
    09:00 +29°C° 0.3 mm 2 mps 748 mmHg 74%
    10:00 +31°C° 0 mm 2 mps 748 mmHg 69%
    11:00 +31°C° 1.4 mm 2 mps 747 mmHg 65%
    12:00 +32°C° 1.4 mm 2 mps 747 mmHg 62%
    13:00 +34°C° 1.4 mm 2 mps 747 mmHg 58%
    14:00 +32°C° 0 mm 2 mps 746 mmHg 59%
    15:00 +32°C° 0 mm 2 mps 746 mmHg 59%
    16:00 +32°C° 0 mm 2 mps 745 mmHg 60%
    17:00 +30°C° 0.1 mm 2 mps 745 mmHg 67%
    18:00 +29°C° 0.1 mm 2 mps 745 mmHg 74%
    19:00 +27°C° 0.1 mm 1 mps 746 mmHg 81%
    20:00 +27°C° 0.2 mm 1 mps 746 mmHg 83%
    21:00 +26°C° 0.2 mm 1 mps 746 mmHg 86%
    22:00 +26°C° 0.2 mm 1 mps 746 mmHg 88%
    23:00 +26°C° 0.1 mm 1 mps 746 mmHg 89%

    Tomorrow, 18 February, Monday

    Time Temperature Precipitation Wind Pressure Humidity
    00:00 +23°C° 0.1 mm 0 mps 746 mmHg 90%
    01:00 +23°C° 0.1 mm 0 mps 746 mmHg 92%
    02:00 +23°C° 0 mm 0 mps 746 mmHg 92%
    03:00 +23°C° 0 mm 0 mps 746 mmHg 93%
    04:00 +25°C° 0 mm 1 mps 746 mmHg 93%
    05:00 +25°C° 0 mm 1 mps 746 mmHg 92%
    06:00 +25°C° 0 mm 1 mps 746 mmHg 92%
    07:00 +25°C° 0 mm 1 mps 746 mmHg 91%
    08:00 +28°C° 0 mm 1 mps 746 mmHg 80%
    09:00 +29°C° 0 mm 0 mps 746 mmHg 70%
    10:00 +31°C° 0 mm 0 mps 747 mmHg 59%
    11:00 +34°C° 0 mm 1 mps 746 mmHg 56%
    12:00 +35°C° 0 mm 1 mps 746 mmHg 52%
    13:00 +36°C° 0 mm 2 mps 745 mmHg 49%
    14:00 +36°C° 0 mm 2 mps 745 mmHg 52%
    15:00 +35°C° 0 mm 2 mps 744 mmHg 56%
    16:00 +34°C° 0 mm 3 mps 744 mmHg 59%
    17:00 +31°C° 0 mm 2 mps 744 mmHg 68%
    18:00 +30°C° 0 mm 2 mps 744 mmHg 76%
    19:00 +28°C° 0 mm 2 mps 744 mmHg 84%
    20:00 +27°C° 0 mm 2 mps 745 mmHg 86%
    21:00 +27°C° 0 mm 2 mps 746 mmHg 88%
    22:00 +27°C° 0 mm 2 mps 746 mmHg 89%
    23:00 +26°C° 0 mm 2 mps 746 mmHg 90%

    Day after tomorrow, 19 February, Tuesday

    Time Temperature Precipitation Wind Pressure Humidity
    00:00 +26°C° 0 mm 1 mps 746 mmHg 90%
    01:00 +26°C° 0 mm 1 mps 746 mmHg 90%
    02:00 +26°C° 0 mm 1 mps 745 mmHg 90%
    03:00 +26°C° 0 mm 1 mps 745 mmHg 91%
    04:00 +25°C° 0 mm 1 mps 744 mmHg 91%
    05:00 +26°C° 0 mm 1 mps 745 mmHg 89%
    06:00 +26°C° 0 mm 1 mps 745 mmHg 87%
    07:00 +26°C° 0 mm 2 mps 745 mmHg 85%
    08:00 +29°C° 0 mm 1 mps 745 mmHg 73%
    09:00 +32°C° 0 mm 1 mps 745 mmHg 61%
    10:00 +35°C° 0 mm 1 mps 745 mmHg 49%
    11:00 +37°C° 0 mm 1 mps 744 mmHg 42%
    12:00 +40°C° 0 mm 2 mps 744 mmHg 35%
    13:00 +42°C° 0 mm 2 mps 743 mmHg 28%
    14:00 +40°C° 0 mm 2 mps 743 mmHg 34%
    15:00 +39°C° 0 mm 3 mps 742 mmHg 40%
    16:00 +38°C° 0 mm 3 mps 742 mmHg 45%
    17:00 +35°C° 0 mm 2 mps 742 mmHg 54%
    18:00 +32°C° 0 mm 2 mps 743 mmHg 63%
    19:00 +30°C° 0 mm 1 mps 743 mmHg 72%
    20:00 +30°C° 0 mm 2 mps 743 mmHg 71%
    21:00 +30°C° 0 mm 2 mps 744 mmHg 70%
    22:00 +30°C° 0 mm 2 mps 745 mmHg 69%
    23:00 +29°C° 0 mm 2 mps 744 mmHg 69%

    20 February, Wednesday

    Time Temperature Precipitation Wind Pressure Humidity
    00:00 +29°C° 0 mm 2 mps 744 mmHg 69%
    01:00 +28°C° 0 mm 1 mps 743 mmHg 69%
    02:00 +28°C° 0 mm 2 mps 743 mmHg 69%
    03:00 +28°C° 0 mm 2 mps 742 mmHg 70%
    04:00 +28°C° 0 mm 3 mps 742 mmHg 70%
    05:00 +28°C° 0 mm 3 mps 742 mmHg 70%
    06:00 +28°C° 0 mm 3 mps 743 mmHg 70%
    07:00 +29°C° 0 mm 3 mps 743 mmHg 70%
    08:00 +31°C° 0 mm 3 mps 744 mmHg 63%
    09:00 +34°C° 0 mm 4 mps 744 mmHg 56%
    10:00 +37°C° 0 mm 4 mps 744 mmHg 49%
    11:00 +40°C° 0 mm 4 mps 744 mmHg 42%
    12:00 +41°C° 0 mm 4 mps 743 mmHg 35%
    13:00 +43°C° 0 mm 4 mps 742 mmHg 28%
    14:00 +44°C° 0 mm 3 mps 742 mmHg 25%
    15:00 +44°C° 0 mm 3 mps 741 mmHg 22%
    16:00 +45°C° 0 mm 2 mps 740 mmHg 19%
    17:00 +40°C° 0 mm 2 mps 740 mmHg 27%
    18:00 +37°C° 0 mm 2 mps 740 mmHg 34%
    19:00 +34°C° 0 mm 2 mps 741 mmHg 41%
    20:00 +32°C° 0 mm 2 mps 741 mmHg 41%
    21:00 +31°C° 0 mm 3 mps 741 mmHg 41%
    22:00 +31°C° 0 mm 3 mps 742 mmHg 41%
    23:00 +32°C° 0 mm 4 mps 741 mmHg 39%

    21 February, Thursday

    Time Temperature Precipitation Wind Pressure Humidity
    00:00 +32°C° 0 mm 4 mps 741 mmHg 37%
    01:00 +30°C° 0 mm 4 mps 741 mmHg 34%
    02:00 +30°C° 0 mm 4 mps 741 mmHg 33%
    03:00 +30°C° 0 mm 3 mps 741 mmHg 31%
    04:00 +30°C° 0 mm 3 mps 741 mmHg 30%
    05:00 +29°C° 0 mm 3 mps 741 mmHg 33%
    06:00 +28°C° 0 mm 2 mps 742 mmHg 37%
    07:00 +27°C° 0 mm 2 mps 743 mmHg 40%
    08:00 +30°C° 0 mm 2 mps 743 mmHg 36%
    09:00 +32°C° 0 mm 2 mps 743 mmHg 31%
    10:00 +36°C° 0 mm 2 mps 744 mmHg 27%
    11:00 +38°C° 0 mm 2 mps 743 mmHg 23%
    12:00 +40°C° 0 mm 2 mps 743 mmHg 20%
    13:00 +42°C° 0 mm 1 mps 742 mmHg 16%
    14:00 +42°C° 0 mm 2 mps 741 mmHg 18%
    15:00 +41°C° 0 mm 2 mps 741 mmHg 20%
    16:00 +40°C° 0 mm 3 mps 740 mmHg 22%
    17:00 +37°C° 0 mm 2 mps 741 mmHg 35%
    18:00 +32°C° 0 mm 2 mps 741 mmHg 48%
    19:00 +29°C° 0 mm 1 mps 741 mmHg 60%
    20:00 +28°C° 0 mm 1 mps 742 mmHg 62%
    21:00 +28°C° 0 mm 1 mps 742 mmHg 63%
    22:00 +27°C° 0 mm 1 mps 743 mmHg 65%
    23:00 +27°C° 0 mm 1 mps 743 mmHg 63%

    22 February, Friday

    Time Temperature Precipitation Wind Pressure Humidity
    00:00 +26°C° 0 mm 1 mps 743 mmHg 61%
    01:00 +26°C° 0 mm 1 mps 743 mmHg 59%
    02:00 +26°C° 0 mm 1 mps 743 mmHg 57%
    03:00 +25°C° 0 mm 1 mps 742 mmHg 55%
    04:00 +25°C° 0 mm 1 mps 742 mmHg 53%
    05:00 +25°C° 0 mm 1 mps 743 mmHg 52%
    06:00 +24°C° 0 mm 1 mps 743 mmHg 51%
    07:00 +24°C° 0 mm 2 mps 744 mmHg 50%
    08:00 +28°C° 0 mm 1 mps 744 mmHg 41%
    09:00 +32°C° 0 mm 1 mps 744 mmHg 32%
    10:00 +36°C° 0 mm 1 mps 744 mmHg 24%
    11:00 +37°C° 0 mm 1 mps 744 mmHg 22%
    12:00 +39°C° 0 mm 2 mps 743 mmHg 19%
    13:00 +41°C° 0 mm 2 mps 743 mmHg 17%
    14:00 +40°C° 0 mm 3 mps 742 mmHg 21%
    15:00 +39°C° 0 mm 3 mps 742 mmHg 24%
    16:00 +38°C° 0 mm 3 mps 742 mmHg 27%
    17:00 +35°C° 0 mm 3 mps 742 mmHg 41%
    18:00 +31°C° 0 mm 2 mps 743 mmHg 55%
    19:00 +27°C° 0 mm 2 mps 743 mmHg 69%
    20:00 +27°C° 0 mm 1 mps 744 mmHg 75%
    21:00 +27°C° 0 mm 1 mps 745 mmHg 81%
    22:00 +26°C° 0 mm 1 mps 746 mmHg 87%
    23:00 +26°C° 0.1 mm 1 mps 746 mmHg 89%
    Show more